DRK400 VQPR-VNKT

Flight info

Callsign DRK400
Flight time 0h 50m
Altitude 32000
Route PRO G348 KIMTI KMTI2R
Aircraft A320/M-SDE3FGHIRWY/LB1

Departure

Time 2026-05-04 05:23
Airport Paro International Airport (VQPR)

Arrival

Time 2026-05-04 06:14
Airport Tribhuvan International Airport (VNKT)
Time Latitude Longitude Altitude Speed Heading
2026-05-04 05:09 27.40626 89.42102 7332 ft 0 kts 241°
2026-05-04 05:16 27.40630 89.42109 7360 ft 4 kts 240°
2026-05-04 05:16 27.40640 89.42132 7333 ft 4 kts 257°
2026-05-04 05:16 27.40641 89.42150 7334 ft 4 kts 288°
2026-05-04 05:17 27.40628 89.42170 7334 ft 1 kts 330°
2026-05-04 05:17 27.40626 89.42171 7334 ft 1 kts 330°
2026-05-04 05:19 27.40627 89.42170 7334 ft 1 kts 330°
2026-05-04 05:20 27.40638 89.42165 7334 ft 3 kts 342°
2026-05-04 05:20 27.40657 89.42170 7335 ft 3 kts 24°
2026-05-04 05:20 27.40675 89.42194 7337 ft 5 kts 57°
2026-05-04 05:20 27.40712 89.42220 7339 ft 10 kts 353°
2026-05-04 05:21 27.40794 89.42170 7339 ft 16 kts 330°
2026-05-04 05:21 27.40903 89.42101 7338 ft 20 kts 331°
2026-05-04 05:21 27.41030 89.42021 7338 ft 22 kts 329°
2026-05-04 05:21 27.41156 89.41933 7336 ft 16 kts 311°
2026-05-04 05:22 27.41188 89.41916 7336 ft 1 kts 105°
2026-05-04 05:22 27.41180 89.41922 7336 ft 2 kts 138°
2026-05-04 05:22 27.41165 89.41935 7336 ft 4 kts 147°
2026-05-04 05:22 27.41127 89.41959 7336 ft 13 kts 150°
2026-05-04 05:23 27.40853 89.42135 7338 ft 79 kts 151°
2026-05-04 05:23 27.40170 89.42569 7336 ft 146 kts 150°
2026-05-04 05:23 27.39155 89.43207 7725 ft 176 kts 152°
2026-05-04 05:23 27.38090 89.43923 8553 ft 180 kts 142°
2026-05-04 05:24 27.37191 89.44911 9406 ft 181 kts 132°
2026-05-04 05:24 27.36389 89.45970 10282 ft 170 kts 129°
2026-05-04 05:24 27.35686 89.46960 10820 ft 157 kts 129°
2026-05-04 05:24 27.34975 89.47917 11096 ft 165 kts 132°
2026-05-04 05:25 27.34211 89.48933 11383 ft 174 kts 131°
2026-05-04 05:25 27.33420 89.49998 11733 ft 180 kts 131°
2026-05-04 05:25 27.32584 89.51062 12132 ft 183 kts 136°
2026-05-04 05:25 27.31626 89.51978 12586 ft 178 kts 148°
2026-05-04 05:26 27.30533 89.52573 13021 ft 173 kts 167°
2026-05-04 05:26 27.29349 89.52680 13426 ft 172 kts 189°
2026-05-04 05:26 27.28184 89.52288 13687 ft 181 kts 208°
2026-05-04 05:26 27.27127 89.51471 13990 ft 188 kts 224°
2026-05-04 05:27 27.26280 89.50316 14259 ft 196 kts 240°
2026-05-04 05:28 27.24450 89.39188 16185 ft 250 kts 272°
2026-05-04 05:29 27.24540 89.37228 16570 ft 252 kts 272°
2026-05-04 05:29 27.24625 89.35253 16943 ft 253 kts 272°
2026-05-04 05:29 27.24708 89.33262 17186 ft 262 kts 272°
2026-05-04 05:29 27.24794 89.31139 17296 ft 283 kts 272°
2026-05-04 05:31 27.25494 89.13268 19237 ft 372 kts 272°
2026-05-04 05:31 27.25605 89.10357 19810 ft 374 kts 272°
2026-05-04 05:32 27.25719 89.07434 20356 ft 375 kts 272°
2026-05-04 05:32 27.25835 89.04503 20880 ft 377 kts 272°
2026-05-04 05:32 27.25948 89.01555 21414 ft 378 kts 272°
2026-05-04 05:33 27.26167 88.95638 22352 ft 380 kts 271°
2026-05-04 05:33 27.26277 88.92663 22793 ft 382 kts 271°
2026-05-04 05:33 27.26386 88.89672 23273 ft 384 kts 271°
2026-05-04 05:33 27.26497 88.86661 23743 ft 386 kts 271°
2026-05-04 05:34 27.26608 88.83642 24145 ft 388 kts 271°
2026-05-04 05:34 27.26719 88.80606 24531 ft 390 kts 271°
2026-05-04 05:34 27.26831 88.77558 24899 ft 392 kts 271°
2026-05-04 05:34 27.26944 88.74489 25288 ft 393 kts 271°
2026-05-04 05:35 27.27057 88.71415 25647 ft 395 kts 271°
2026-05-04 05:35 27.27168 88.68323 25969 ft 397 kts 271°
2026-05-04 05:35 27.27279 88.65213 26294 ft 399 kts 271°
2026-05-04 05:35 27.27388 88.62090 26654 ft 401 kts 271°
2026-05-04 05:36 27.27498 88.58956 27007 ft 402 kts 271°
2026-05-04 05:36 27.27605 88.55851 27351 ft 404 kts 271°
2026-05-04 05:36 27.27711 88.52695 27707 ft 405 kts 271°
2026-05-04 05:36 27.27816 88.49523 28054 ft 406 kts 271°
2026-05-04 05:37 27.27924 88.46295 28392 ft 409 kts 271°
2026-05-04 05:37 27.28030 88.43091 28703 ft 412 kts 270°
2026-05-04 05:37 27.28138 88.39867 29005 ft 414 kts 270°
2026-05-04 05:38 27.28352 88.33432 29500 ft 416 kts 270°
2026-05-04 05:38 27.28460 88.30129 29770 ft 419 kts 270°
2026-05-04 05:38 27.28565 88.26894 30040 ft 421 kts 270°
2026-05-04 05:38 27.28670 88.23605 30325 ft 422 kts 270°
2026-05-04 05:39 27.28776 88.20305 30554 ft 424 kts 270°
2026-05-04 05:39 27.28981 88.13666 31010 ft 426 kts 270°
2026-05-04 05:39 27.29083 88.10335 31246 ft 427 kts 270°
2026-05-04 05:40 27.29291 88.03683 31873 ft 424 kts 270°
2026-05-04 05:40 27.29394 88.00379 32130 ft 423 kts 270°
2026-05-04 05:40 27.29495 87.97095 32193 ft 414 kts 270°
2026-05-04 05:41 27.29995 87.90747 32202 ft 405 kts 275°
2026-05-04 05:41 27.30786 87.84483 32187 ft 404 kts 275°
2026-05-04 05:42 27.31596 87.78225 32190 ft 405 kts 275°
2026-05-04 05:42 27.32390 87.71976 32184 ft 403 kts 275°
2026-05-04 05:43 27.33165 87.65723 32168 ft 404 kts 275°
2026-05-04 05:45 27.36224 87.40788 32174 ft 403 kts 275°
2026-05-04 05:47 27.39252 87.15825 32163 ft 403 kts 274°
2026-05-04 05:47 27.40000 87.09569 32166 ft 403 kts 274°
2026-05-04 05:48 27.40746 87.03320 32166 ft 403 kts 275°
2026-05-04 05:48 27.41494 86.97070 32166 ft 403 kts 274°
2026-05-04 05:49 27.42239 86.90812 32169 ft 403 kts 274°
2026-05-04 05:49 27.42976 86.84552 32170 ft 404 kts 274°
2026-05-04 05:51 27.45911 86.59501 32198 ft 405 kts 274°
2026-05-04 05:52 27.46643 86.53200 32198 ft 406 kts 274°
2026-05-04 05:52 27.47366 86.46894 32170 ft 406 kts 274°
2026-05-04 05:54 27.47096 86.22526 32144 ft 400 kts 239°
2026-05-04 05:55 27.43998 86.17320 32118 ft 401 kts 237°
2026-05-04 05:55 27.40874 86.12110 32063 ft 401 kts 237°
2026-05-04 05:56 27.37756 86.06907 32076 ft 401 kts 237°
2026-05-04 05:56 27.34586 86.01638 32094 ft 413 kts 237°
2026-05-04 05:57 27.32996 85.98995 31916 ft 410 kts 237°
2026-05-04 05:57 27.31417 85.96374 31563 ft 401 kts 237°
2026-05-04 05:57 27.29862 85.93794 31071 ft 397 kts 237°
2026-05-04 05:57 27.28320 85.91235 30483 ft 395 kts 237°
2026-05-04 05:58 27.26782 85.88681 29873 ft 394 kts 237°
2026-05-04 05:58 27.25248 85.86137 29230 ft 392 kts 237°
2026-05-04 05:58 27.23722 85.83609 28642 ft 390 kts 237°
2026-05-04 05:58 27.22204 85.81096 28091 ft 387 kts 237°
2026-05-04 05:59 27.20698 85.78605 27555 ft 384 kts 237°
2026-05-04 05:59 27.19203 85.76137 27018 ft 381 kts 237°
2026-05-04 05:59 27.17718 85.73690 26485 ft 378 kts 237°
2026-05-04 05:59 27.16244 85.71257 25943 ft 375 kts 237°
2026-05-04 06:00 27.14783 85.68844 25438 ft 372 kts 237°
2026-05-04 06:00 27.13464 85.66366 24943 ft 368 kts 245°
2026-05-04 06:00 27.12508 85.63715 24459 ft 365 kts 253°
2026-05-04 06:00 27.11921 85.60931 23631 ft 372 kts 262°
2026-05-04 06:01 27.11739 85.58005 22730 ft 379 kts 270°
2026-05-04 06:01 27.11765 85.55048 22051 ft 379 kts 270°
2026-05-04 06:03 27.11765 85.35737 18534 ft 364 kts 269°
2026-05-04 06:03 27.11763 85.32906 18052 ft 361 kts 269°
2026-05-04 06:05 27.20192 85.17998 15487 ft 341 kts 335°
2026-05-04 06:05 27.24827 85.16930 14775 ft 341 kts 356°
2026-05-04 06:05 27.27167 85.17107 14681 ft 333 kts
2026-05-04 06:06 27.29412 85.17702 14283 ft 335 kts 15°
2026-05-04 06:06 27.31600 85.18674 13677 ft 338 kts 19°
2026-05-04 06:06 27.33760 85.19670 13034 ft 332 kts 19°
2026-05-04 06:06 27.35867 85.20633 12548 ft 322 kts 19°
2026-05-04 06:07 27.37912 85.21562 12096 ft 312 kts 19°
2026-05-04 06:07 27.39857 85.22442 11692 ft 303 kts 20°
2026-05-04 06:07 27.41787 85.23314 11276 ft 294 kts 21°
2026-05-04 06:07 27.43659 85.24156 10892 ft 286 kts 21°
2026-05-04 06:08 27.45480 85.24970 10517 ft 277 kts 21°
2026-05-04 06:08 27.47234 85.25755 10145 ft 263 kts 21°
2026-05-04 06:08 27.48876 85.26493 9796 ft 246 kts 21°
2026-05-04 06:08 27.50420 85.27192 9449 ft 232 kts 21°
2026-05-04 06:09 27.51884 85.27851 9199 ft 227 kts 21°
2026-05-04 06:09 27.53292 85.28480 8925 ft 210 kts 21°
2026-05-04 06:11 27.61813 85.32324 5936 ft 173 kts 21°
2026-05-04 06:11 27.62920 85.32808 5594 ft 168 kts 22°
2026-05-04 06:13 27.70010 85.36072 4394 ft 72 kts 21°
2026-05-04 06:14 27.70079 85.35987 4397 ft 11 kts 202°
2026-05-04 06:14 27.70006 85.35953 4397 ft 12 kts 202°
2026-05-04 06:15 27.69926 85.35917 4397 ft 12 kts 206°
2026-05-04 06:15 27.69913 85.35885 4397 ft 2 kts 272°
2026-05-04 06:15 27.69915 85.35877 4397 ft 0 kts 281°
2026-05-04 06:15 27.69923 85.35851 4398 ft 6 kts 290°
2026-05-04 06:16 27.69934 85.35819 4398 ft 0 kts 292°
2026-05-04 06:16 27.69935 85.35818 4398 ft 1 kts 292°
2026-05-04 06:16 27.69937 85.35811 4398 ft 0 kts 292°